Terminal Aerodrome Forecast
Issued by NWS Billings, MT

Home | Current Version | Previous Version | Text Only | Print | Product List | Glossary On
Versions: 1 2 3 4 5 6 7 8 9 10 11 12 13 14 15 16 17 18 19 20 21 22 23 24 25 26 27 28 29
000
FTUS45 KBYZ 210520
TAFSHR
TAF
KSHR 210520Z 2106/2206 VRB04KT P6SM SKC
     FM212100 24010KT P6SM FEW100 BKN200
     FM220100 31015G22KT P6SM VCSH SCT090 BKN150=

USA.gov is the U.S. government's official web portal to all federal, state and local government web resources and services.